Voltar ao catálogo

NOAA 16 DEB

LostPO
NORAD 42383·DEBRIS·🇺🇸 United States

Lançado Sep 21, 2000 de Vandenberg Space Force Base

Loading…

Próximas Passagens (próximas 24 horas)

TLE

ObsoletoSource: Space-Track

Época: Feb 27, 2026, 15:08 UTC

1 42383U 00055SB  26058.63072478  .00192328  00000-0  10801-1 0  9994
2 42383  98.8281 211.5375 0017654 315.8201  44.1615 15.12270094518168

Acompanhe NOAA 16 DEB em tempo real com AllMySat

Download on the App Store